Wind_Speed
44 44 45 45 44 44 44 45 45 44 43 43 44 44 45 46 46 46 47 47 47 47 47 47 47 47 47 47 47 47 47 47 47 47 47 47 46 46
44 45 45 44 44 44 44 45 46 46 46 46 46 46 46 47 47 48 48 48 48 49 49 49 48 48 48 48 48 48 48 48 48 48 48 48 48 48
45 45 45 45 45 46 46 46 47 47 47 47 48 48 49 49 49 49 49 49 50 50 50 49 49 49 49 49 50 50 50 50 50 50 50 50 50 50
46 46 46 46 47 47 47 48 48 48 48 49 49 49 50 51 51 51 50 51 51 51 50 50 50 51 51 51 52 52 52 52 52 52 52 51 51 51
47 47 47 48 48 49 49 49 50 50 50 51 51 52 52 52 52 51 51 52 51 51 51 52 52 53 53 53 54 54 54 53 53 53 52 52 52 52
48 49 49 49 50 49 50 51 51 51 52 52 51 52 52 52 53 53 53 53 53 53 54 54 54 55 55 54 54 54 54 54 54 53 53 53 52 52
49 50 50 51 51 50 51 51 52 53 53 53 53 54 54 54 54 54 55 55 55 56 56 56 56 56 56 56 56 55 55 54 54 54 54 54 54 53
50 50 50 51 52 52 52 53 54 54 55 55 56 56 56 56 56 56 57 57 56 56 57 57 58 57 57 57 56 56 55 55 55 55 55 54 54 54
49 50 51 52 53 53 54 54 54 55 56 56 56 56 57 57 58 58 58 58 58 57 58 57 58 57 57 57 56 56 56 56 56 56 55 55 54 54
50 51 52 52 53 54 54 55 55 55 56 56 56 56 57 58 58 58 58 58 57 57 58 57 57 58 58 57 57 57 57 56 56 56 56 55 54 53
50 51 53 53 55 55 56 56 56 56 56 57 57 57 57 58 58 58 57 57 56 56 57 57 57 57 57 57 57 57 57 56 55 55 54 53 53 52
51 52 53 54 55 56 57 56 56 56 56 56 56 56 57 57 57 57 57 57 56 55 55 56 56 57 56 56 56 55 55 54 53 53 52 52 51 51
51 52 53 54 55 56 56 55 55 54 54 54 54 55 55 55 55 56 56 56 56 55 55 55 55 56 56 55 53 53 53 52 51 51 51 50 49 49
52 53 53 54 53 53 53 53 53 53 52 52 53 53 54 54 54 54 54 55 55 55 55 55 54 54 54 53 51 50 50 50 49 49 48 48 47 47
53 53 53 52 52 52 51 51 51 51 51 52 52 52 52 52 52 52 53 53 54 54 53 53 53 53 52 50 49 48 47 47 47 46 46 46 45 45
54 53 53 53 52 52 52 51 51 51 52 51 51 51 51 50 50 51 51 52 52 52 52 51 51 50 49 48 47 46 45 45 44 44 44 43 43 44
53 53 53 53 53 52 52 52 52 52 51 51 51 50 50 50 49 50 50 50 50 50 49 49 48 48 47 46 45 44 43 42 42 42 42 41 41 42
53 53 53 53 52 52 52 51 51 51 51 51 51 50 50 49 49 49 49 49 49 49 48 47 47 46 45 44 43 42 41 41 41 40 40 39 38 38
52 52 51 51 51 51 51 51 51 51 51 51 50 50 49 49 48 48 48 48 48 46 45 45 44 44 43 41 40 41 40 40 39 37 37 37 36 36
51 51 50 50 50 51 51 51 51 51 50 50 50 49 48 48 47 47 47 47 45 44 43 42 42 41 41 40 38 37 38 38 37 36 35 35 34 34
50 49 49 49 49 48 48 49 49 48 48 48 47 47 46 45 45 45 45 44 43 42 41 39 39 39 38 37 36 35 35 35 34 34 33 32 31 30
48 47 47 47 46 46 46 46 46 45 45 44 44 43 43 42 42 43 42 41 40 38 37 36 35 35 35 34 33 32 31 31 31 30 30 29 27 26
46 45 44 44 44 44 43 43 42 42 42 41 40 41 41 40 40 40 39 38 36 35 34 33 32 32 32 31 30 29 28 28 28 27 27 26 25 24
Wind_Direction
275 277 277 279 279 279 279 278 278 278 278 278 279 279 281 282 282 283 283 283 284 284 284 284 284 284 284 283 283 282 282 282 281 280 279 279 280 280
275 276 277 277 279 279 280 280 279 280 279 279 279 280 281 282 282 282 283 283 283 284 284 283 283 283 283 282 282 282 282 282 281 280 279 279 280 280
276 277 277 277 278 278 278 279 279 280 279 279 279 280 281 281 281 282 282 283 283 284 283 283 283 283 283 283 283 283 283 282 281 280 280 280 280 280
276 277 277 276 277 278 278 278 278 279 280 280 280 281 281 281 282 282 282 282 283 283 283 283 283 283 283 283 283 283 283 282 281 280 280 280 280 279
276 277 277 277 278 278 278 278 278 278 279 280 280 280 280 280 280 281 281 282 282 283 283 283 283 284 284 284 283 283 283 283 282 281 280 280 280 279
276 277 277 277 278 278 278 277 277 278 279 279 279 279 279 279 280 280 280 281 282 282 283 283 283 283 283 283 283 283 283 283 283 282 281 281 281 280
277 277 278 277 277 278 279 278 278 278 279 278 278 279 279 279 279 280 280 280 281 282 282 283 283 283 283 283 283 284 284 283 283 282 282 281 281 280
277 277 277 277 277 278 279 279 279 279 279 279 279 278 279 279 279 280 280 280 281 281 282 282 283 282 282 282 283 284 284 284 283 282 281 281 281 280
278 278 277 278 278 279 280 280 279 279 279 279 279 279 279 280 280 281 281 281 282 282 282 282 283 283 283 283 284 284 284 284 283 282 282 281 281 280
279 279 279 279 280 280 280 280 281 281 280 280 280 280 280 281 282 282 281 282 282 283 283 282 282 283 283 284 284 284 284 283 283 282 283 282 281 280
279 279 278 279 279 280 280 281 281 280 280 281 281 281 281 282 282 281 281 282 283 283 283 283 282 282 283 284 284 284 284 283 283 283 282 282 281 280
280 279 279 279 279 279 281 282 281 281 281 282 282 282 282 282 281 281 281 282 283 283 283 283 283 283 283 283 284 284 283 283 282 282 281 281 280 280
280 280 280 280 280 281 281 281 282 281 282 282 282 282 282 281 280 281 281 282 283 284 284 284 285 285 285 284 283 282 282 281 281 281 281 281 280 279
281 281 280 280 281 281 281 281 281 281 281 282 282 282 281 281 280 280 281 282 284 285 285 286 287 287 286 285 284 283 281 281 281 281 280 280 279 279
281 281 281 281 281 281 281 281 281 281 281 282 283 283 282 281 281 281 283 284 285 286 287 287 287 287 287 286 285 284 283 282 282 281 280 279 279 279
282 282 282 282 282 282 282 282 282 281 282 283 283 283 282 282 282 283 284 285 286 286 286 286 286 286 287 287 286 285 284 283 281 280 280 280 280 280
282 282 282 282 282 282 282 282 283 282 282 283 283 282 282 283 283 284 284 285 286 287 286 285 285 286 287 286 286 286 284 283 282 281 280 280 280 279
282 282 282 282 282 282 282 282 283 283 283 283 284 283 283 283 283 284 285 286 287 287 286 285 286 286 286 285 285 284 284 284 283 282 281 281 280 279
283 282 282 281 282 282 282 282 282 282 283 283 284 283 283 284 284 285 286 286 286 286 286 286 286 286 285 284 283 283 283 282 282 281 281 281 281 279
282 282 281 281 282 282 282 281 281 281 282 282 283 283 283 283 284 285 286 286 285 285 286 285 285 285 285 284 283 282 282 281 280 280 280 281 281 280
282 282 281 281 282 282 282 281 281 281 281 282 283 283 283 284 285 286 286 285 285 285 285 285 284 284 284 283 283 281 280 280 280 279 279 279 280 279
282 282 282 282 282 282 281 281 281 281 282 282 283 284 284 284 285 286 286 285 284 284 284 284 283 283 283 284 284 282 280 279 278 279 280 280 278 276
283 283 282 282 282 282 282 281 281 282 282 283 284 284 285 285 286 286 285 284 283 283 283 283 282 282 282 283 283 282 280 278 277 278 279 279 278 277
Height
5706 5706 5705 5705 5704 5704 5703 5703 5703 5702 5702 5701 5699 5697 5695 5694 5693 5691 5690 5688 5686 5684 5682 5681 5679 5677 5675 5673 5671 5670 5668 5667 5665 5664 5663 5662 5661 5660
5695 5694 5694 5693 5693 5692 5691 5691 5690 5690 5690 5689 5687 5685 5684 5682 5680 5679 5677 5675 5673 5671 5670 5668 5666 5664 5662 5660 5658 5657 5655 5654 5652 5651 5650 5649 5648 5647
5684 5683 5682 5682 5681 5680 5679 5678 5678 5677 5677 5677 5674 5672 5671 5669 5668 5666 5664 5662 5660 5658 5656 5654 5653 5651 5649 5647 5645 5644 5642 5640 5638 5637 5636 5635 5634 5633
5671 5671 5670 5669 5669 5668 5667 5666 5665 5664 5663 5663 5662 5659 5657 5656 5654 5653 5651 5649 5647 5645 5643 5641 5639 5637 5635 5633 5631 5629 5628 5626 5624 5622 5621 5620 5619 5618
5659 5658 5657 5657 5656 5655 5654 5653 5651 5650 5649 5649 5648 5646 5644 5642 5640 5639 5637 5635 5633 5631 5629 5627 5625 5623 5621 5618 5616 5615 5613 5611 5609 5607 5606 5605 5604 5603
5645 5645 5644 5643 5642 5641 5640 5639 5637 5636 5635 5634 5633 5631 5630 5627 5626 5624 5623 5621 5619 5617 5614 5612 5610 5608 5606 5604 5602 5600 5598 5595 5594 5592 5591 5589 5588 5587
5632 5631 5630 5629 5628 5627 5626 5624 5623 5621 5620 5619 5618 5616 5614 5612 5610 5609 5608 5606 5604 5602 5599 5597 5595 5593 5590 5588 5586 5584 5582 5580 5578 5576 5575 5573 5572 5571
5618 5617 5616 5614 5613 5612 5611 5609 5608 5606 5605 5603 5602 5600 5599 5596 5594 5593 5591 5590 5589 5588 5584 5582 5579 5578 5575 5573 5571 5569 5566 5564 5562 5560 5559 5557 5556 5554
5603 5602 5601 5600 5599 5598 5596 5594 5592 5590 5589 5587 5586 5584 5582 5581 5579 5577 5575 5573 5572 5570 5568 5567 5564 5561 5559 5557 5555 5553 5550 5548 5546 5544 5542 5541 5539 5538
5589 5588 5587 5586 5584 5582 5581 5579 5577 5575 5573 5571 5570 5568 5566 5564 5562 5560 5558 5557 5556 5553 5550 5550 5548 5545 5543 5541 5538 5536 5533 5531 5529 5527 5525 5523 5522 5521
5575 5573 5572 5571 5569 5567 5566 5565 5563 5560 5557 5555 5554 5552 5549 5547 5545 5543 5542 5541 5540 5539 5534 5532 5531 5529 5528 5525 5522 5519 5516 5514 5512 5510 5508 5506 5505 5503
5561 5559 5557 5555 5554 5551 5550 5548 5547 5545 5542 5540 5538 5536 5533 5531 5529 5527 5525 5524 5523 5523 5519 5516 5514 5511 5511 5511 5507 5502 5499 5497 5495 5493 5491 5489 5488 5486
5545 5544 5542 5540 5538 5536 5534 5532 5531 5529 5527 5525 5523 5521 5518 5516 5513 5511 5509 5508 5506 5505 5503 5499 5498 5494 5492 5492 5491 5487 5483 5481 5478 5477 5475 5473 5471 5470
5530 5528 5527 5525 5522 5520 5518 5517 5515 5513 5512 5510 5508 5506 5503 5501 5499 5496 5494 5492 5490 5489 5486 5483 5481 5478 5475 5474 5473 5471 5468 5465 5463 5461 5459 5458 5456 5455
5515 5513 5511 5509 5507 5505 5503 5501 5500 5498 5497 5495 5493 5491 5489 5486 5484 5482 5480 5477 5476 5473 5470 5466 5464 5461 5459 5457 5456 5454 5452 5450 5448 5446 5445 5443 5442 5441
5499 5498 5496 5494 5492 5490 5488 5487 5485 5483 5481 5480 5478 5476 5474 5472 5469 5467 5465 5463 5461 5459 5455 5451 5448 5446 5444 5443 5441 5439 5437 5435 5434 5432 5431 5430 5428 5427
5484 5483 5481 5479 5477 5476 5473 5471 5470 5468 5466 5465 5463 5461 5459 5457 5455 5452 5450 5448 5446 5444 5441 5438 5435 5432 5430 5428 5427 5425 5423 5421 5420 5418 5417 5417 5415 5413
5469 5467 5466 5464 5462 5461 5459 5457 5455 5453 5451 5450 5448 5446 5444 5442 5440 5438 5436 5434 5432 5429 5427 5424 5421 5419 5418 5416 5414 5411 5410 5408 5407 5406 5404 5404 5403 5401
5453 5452 5450 5449 5447 5445 5444 5442 5440 5438 5436 5435 5433 5431 5429 5428 5426 5424 5422 5419 5417 5415 5413 5410 5407 5405 5404 5404 5402 5399 5397 5396 5394 5394 5392 5391 5391 5390
5438 5437 5435 5434 5432 5430 5428 5427 5425 5423 5422 5420 5418 5416 5415 5413 5411 5410 5407 5405 5403 5401 5400 5397 5394 5392 5391 5390 5390 5389 5385 5383 5383 5382 5381 5380 5379 5378
5423 5422 5420 5419 5417 5415 5413 5412 5410 5409 5407 5405 5404 5402 5401 5399 5397 5396 5394 5391 5389 5388 5386 5385 5382 5380 5378 5377 5378 5377 5375 5372 5371 5371 5370 5370 5369 5368
5409 5407 5406 5404 5402 5401 5399 5397 5396 5395 5393 5392 5390 5389 5387 5386 5384 5382 5381 5379 5377 5375 5374 5373 5371 5369 5368 5367 5366 5365 5365 5363 5361 5360 5360 5360 5359 5359
5395 5393 5392 5390 5388 5387 5385 5384 5382 5381 5380 5379 5378 5376 5375 5373 5372 5370 5368 5367 5365 5364 5363 5362 5361 5360 5358 5357 5356 5355 5355 5354 5353 5353 5352 5351 5350 5350